Location: Newark
(48.6767°N, 1.3256°E)
Time: 12:07:10
(UTC+00:00)

ISS - Pass Details

Date: 26 November 2019
Orbit: 411 x 421 km, 51.6° (Epoch: 13 December)

Event Time Altitude Azimuth Distance (km) Brightness Sun altitude
Rises 18:58:59 0° 266° (W) 2,358 1.3 -28.2°
Reaches altitude 10° 19:01:06 10° 270° (W) 1,498 0.0 -28.5°
Enters shadow 19:02:10 19° 276° (W) 1,082 -0.9 -28.7°
